Location: Unspecified
(0.0000°N, 0.0000°E)
Time: 22:32:42
(UTC+00:00)

Envisat - Pass Details

Date: 11 February 2018
Orbit: 764 x 766 km, 98.2° (Epoch: 21 May)

Event Time Altitude Azimuth Distance (km) Brightness Sun altitude
Rises 19:50:36 0° 165° (SSE) 3,228 6.2 -23.4°
Reaches altitude 10° 19:52:55 10° 164° (SSE) 2,300 5.4 -23.9°
Maximum altitude 19:57:58 77° 78° (ENE) 787 2.8 -25.1°
Enters shadow 19:58:27 70° 28° (NNE) 812 2.9 -25.2°
